{"data":{"norad_id":59002,"intl_designator":"2024-036E","name":"STARLINK-31431","alt_names":[],"object_type":"PAYLOAD","status":"ACTIVE","operator":null,"country":"US","launch_date":"2024-02-23","launch_site_code":"AFWTR","launch_vehicle":null,"mission":null,"orbit_class":"UNKNOWN","rcs_meters":null,"size_class":null,"mass_kg":null,"dimensions":null,"purposes":["comms"],"wikipedia_slug":null,"has_3d_model":false,"image_url":null,"decayed_at":null,"tle_current":{"epoch":"2026-05-25T04:42:14.855328Z","epoch_age_seconds":54114,"freshness":"FRESH","line1":"1 59002U 24036E   26145.19600527  .00001329  00000+0  57005-4 0  9994","line2":"2 59002  53.1607  82.9829 0000997 102.4671 257.6441 15.30190176127039","mean_motion":15.30190176,"eccentricity":9.97e-5,"inclination_deg":53.1607,"raan_deg":82.9829,"arg_perigee_deg":102.4671,"mean_anomaly_deg":257.6441,"bstar":5.7005e-5,"rev_number":12703,"period_min":94.105949873776,"perigee_km":474.56112014366,"apogee_km":475.92768439528,"semimajor_km":6853.3814022695,"source":"CELESTRAK","updated_at":"2026-05-25T13:38:18.798356Z"}}}